Year,Month,Day,Hour,Minute,Value (Times are PST for temperature in C)
2019,03,16,10,09,8.80
2019,03,16,10,10,8.80
2019,03,16,10,11,8.80
2019,03,16,10,12,8.80
2019,03,16,10,13,8.80
2019,03,16,10,14,8.90
2019,03,16,10,15,8.90
2019,03,16,10,16,8.90
2019,03,16,10,17,9.00
2019,03,16,10,18,9.00
2019,03,16,10,19,9.00
2019,03,16,10,20,9.10
2019,03,16,10,21,9.10
2019,03,16,10,22,9.10
2019,03,16,10,23,9.10
2019,03,16,10,24,9.10
2019,03,16,10,25,9.10
2019,03,16,10,26,9.20
2019,03,16,10,27,9.20
2019,03,16,10,28,9.20
2019,03,16,10,29,9.30
2019,03,16,10,30,9.30
2019,03,16,10,31,9.30
2019,03,16,10,32,9.30
2019,03,16,10,33,9.40
2019,03,16,10,34,9.40
2019,03,16,10,35,9.50
2019,03,16,10,36,9.50
2019,03,16,10,37,9.50
2019,03,16,10,38,9.60
2019,03,16,10,39,9.60
2019,03,16,10,40,9.60
2019,03,16,10,41,9.70
2019,03,16,10,42,9.70
2019,03,16,10,43,9.80
2019,03,16,10,44,9.80
2019,03,16,10,45,9.80
2019,03,16,10,46,9.80
2019,03,16,10,47,9.80
2019,03,16,10,48,9.80
2019,03,16,10,49,9.90
2019,03,16,10,50,9.90
2019,03,16,10,51,9.90
2019,03,16,10,52,9.90
2019,03,16,10,53,9.90
2019,03,16,10,54,9.90
2019,03,16,10,55,10.00
2019,03,16,10,56,10.00
2019,03,16,10,57,10.00
2019,03,16,10,58,10.10
2019,03,16,10,59,10.10
2019,03,16,11,00,10.10
2019,03,16,11,01,10.10
2019,03,16,11,02,10.10
2019,03,16,11,03,10.10
2019,03,16,11,04,10.10
2019,03,16,11,05,10.20
2019,03,16,11,06,10.20
2019,03,16,11,07,10.20
2019,03,16,11,08,10.30
2019,03,16,11,09,10.30
2019,03,16,11,10,10.30
2019,03,16,11,11,10.40
2019,03,16,11,12,10.40
2019,03,16,11,13,10.50
2019,03,16,11,14,10.50
2019,03,16,11,15,10.50
2019,03,16,11,16,10.50
2019,03,16,11,17,10.50
2019,03,16,11,18,10.50
2019,03,16,11,19,10.50
2019,03,16,11,20,10.40
2019,03,16,11,21,10.40
2019,03,16,11,22,10.40
2019,03,16,11,23,10.40
2019,03,16,11,24,10.40
2019,03,16,11,25,10.40
2019,03,16,11,26,10.40
2019,03,16,11,27,10.40
2019,03,16,11,28,10.50
2019,03,16,11,29,10.50
2019,03,16,11,30,10.60
2019,03,16,11,31,10.60
2019,03,16,11,32,10.70
2019,03,16,11,33,10.70
2019,03,16,11,34,10.80
2019,03,16,11,35,10.80
2019,03,16,11,36,10.80
2019,03,16,11,37,10.80
2019,03,16,11,38,10.90
2019,03,16,11,39,10.90
2019,03,16,11,40,10.90
2019,03,16,11,41,10.90
2019,03,16,11,42,10.90
2019,03,16,11,43,10.90
2019,03,16,11,44,10.90
2019,03,16,11,45,11.00
2019,03,16,11,46,11.00
2019,03,16,11,47,11.10
2019,03,16,11,48,11.10
2019,03,16,11,49,11.20
2019,03,16,11,50,11.20
2019,03,16,11,51,11.30
2019,03,16,11,52,11.30
2019,03,16,11,53,11.30
2019,03,16,11,54,11.30
2019,03,16,11,55,11.30
2019,03,16,11,56,11.40
2019,03,16,11,57,11.40
2019,03,16,11,58,11.40
2019,03,16,11,59,11.30
2019,03,16,12,00,11.30
2019,03,16,12,01,11.30
2019,03,16,12,02,11.30
2019,03,16,12,03,11.30
2019,03,16,12,04,11.20
2019,03,16,12,05,11.20
2019,03,16,12,06,11.20
2019,03,16,12,07,11.20
2019,03,16,12,08,11.20
2019,03,16,12,09,11.20
2019,03,16,12,10,11.20
2019,03,16,12,11,11.10
2019,03,16,12,12,11.10
2019,03,16,12,13,11.00
2019,03,16,12,14,11.00
2019,03,16,12,15,11.10
2019,03,16,12,16,11.10
2019,03,16,12,17,11.10
2019,03,16,12,18,11.20
2019,03,16,12,19,11.20
2019,03,16,12,20,11.20
2019,03,16,12,21,11.30
2019,03,16,12,22,11.30
2019,03,16,12,23,11.40
2019,03,16,12,24,11.30
2019,03,16,12,25,11.30
2019,03,16,12,26,11.30
2019,03,16,12,27,11.20
2019,03,16,12,28,11.30
2019,03,16,12,29,11.30
2019,03,16,12,30,11.40
2019,03,16,12,31,11.40
2019,03,16,12,32,11.50
2019,03,16,12,33,11.60
2019,03,16,12,34,11.60
2019,03,16,12,35,11.70
2019,03,16,12,36,11.80
2019,03,16,12,37,11.80
2019,03,16,12,38,11.90
2019,03,16,12,39,12.00
2019,03,16,12,40,12.10
2019,03,16,12,41,12.10
2019,03,16,12,42,12.20
2019,03,16,12,43,12.20
2019,03,16,12,44,12.20
2019,03,16,12,45,12.30
2019,03,16,12,46,12.30
2019,03,16,12,47,12.30
2019,03,16,12,48,12.30
2019,03,16,12,49,12.30
2019,03,16,12,50,12.30
2019,03,16,12,51,12.30
2019,03,16,12,52,12.30
2019,03,16,12,53,12.20
2019,03,16,12,54,12.10
2019,03,16,12,55,12.00
2019,03,16,12,56,11.90
2019,03,16,12,57,11.80
2019,03,16,12,58,11.80
2019,03,16,12,59,11.80
2019,03,16,13,00,11.90
2019,03,16,13,01,11.90
2019,03,16,13,02,11.90
2019,03,16,13,03,11.90
2019,03,16,13,04,11.90
2019,03,16,13,05,11.90
2019,03,16,13,06,11.80
2019,03,16,13,07,11.80
2019,03,16,13,08,11.80
2019,03,16,13,09,11.80
2019,03,16,13,10,11.90
2019,03,16,13,11,11.90
2019,03,16,13,12,11.90
2019,03,16,13,13,11.90
2019,03,16,13,14,11.90
2019,03,16,13,15,11.90
2019,03,16,13,16,11.90
2019,03,16,13,17,12.00
2019,03,16,13,18,12.00
2019,03,16,13,19,12.00
2019,03,16,13,20,11.90
2019,03,16,13,21,11.80
2019,03,16,13,22,11.80
2019,03,16,13,23,11.70
2019,03,16,13,24,11.70
2019,03,16,13,25,11.70
2019,03,16,13,26,11.70
2019,03,16,13,27,11.70
2019,03,16,13,28,11.60
2019,03,16,13,29,11.60
2019,03,16,13,30,11.60
2019,03,16,13,31,11.60
2019,03,16,13,32,11.60
2019,03,16,13,33,11.70
2019,03,16,13,34,11.70
2019,03,16,13,35,11.70
2019,03,16,13,36,11.70
2019,03,16,13,37,11.70
2019,03,16,13,38,11.70
2019,03,16,13,39,11.80
2019,03,16,13,40,11.80
2019,03,16,13,41,11.80
2019,03,16,13,42,11.80
2019,03,16,13,43,11.80
2019,03,16,13,44,11.90
2019,03,16,13,45,12.00
2019,03,16,13,46,12.10
2019,03,16,13,47,12.10
2019,03,16,13,48,12.20
2019,03,16,13,49,12.20
2019,03,16,13,50,12.20
2019,03,16,13,51,12.20
2019,03,16,13,52,12.20
2019,03,16,13,53,12.20
2019,03,16,13,54,12.20
2019,03,16,13,55,12.20
2019,03,16,13,56,12.20
2019,03,16,13,57,12.20
2019,03,16,13,58,12.20
2019,03,16,13,59,12.30
2019,03,16,14,00,12.30
2019,03,16,14,01,12.30
2019,03,16,14,02,12.30
2019,03,16,14,03,12.30
2019,03,16,14,04,12.30
2019,03,16,14,05,12.30
2019,03,16,14,06,12.30
2019,03,16,14,07,12.30
2019,03,16,14,08,12.30
2019,03,16,14,09,12.30
2019,03,16,14,10,12.40
2019,03,16,14,11,12.30
2019,03,16,14,12,12.30
2019,03,16,14,13,12.20
2019,03,16,14,14,12.20
2019,03,16,14,15,12.10
2019,03,16,14,16,12.00
2019,03,16,14,17,11.90
2019,03,16,14,18,11.90
2019,03,16,14,19,12.00
2019,03,16,14,20,12.00
2019,03,16,14,21,11.90
2019,03,16,14,22,11.90
2019,03,16,14,23,11.90
2019,03,16,14,24,11.90
2019,03,16,14,25,11.90
2019,03,16,14,26,11.90
2019,03,16,14,27,11.90
2019,03,16,14,28,11.90
2019,03,16,14,29,11.80
2019,03,16,14,30,11.80
2019,03,16,14,31,11.80
2019,03,16,14,32,11.80
2019,03,16,14,33,11.80
2019,03,16,14,34,11.80
2019,03,16,14,35,11.80
2019,03,16,14,36,11.80
2019,03,16,14,37,11.80
2019,03,16,14,38,11.80
2019,03,16,14,39,11.90
2019,03,16,14,40,11.90
2019,03,16,14,41,12.00
2019,03,16,14,42,12.00
2019,03,16,14,43,12.10
2019,03,16,14,44,12.10
2019,03,16,14,45,12.20
2019,03,16,14,46,12.20
2019,03,16,14,47,12.30
2019,03,16,14,48,12.30
2019,03,16,14,49,12.30
2019,03,16,14,50,12.30
2019,03,16,14,51,12.40
2019,03,16,14,52,12.40
2019,03,16,14,53,12.30
2019,03,16,14,54,12.30
2019,03,16,14,55,12.30
2019,03,16,14,56,12.30
2019,03,16,14,57,12.30
2019,03,16,14,58,12.30
2019,03,16,14,59,12.30
2019,03,16,15,00,12.30
2019,03,16,15,01,12.30
2019,03,16,15,02,12.30
2019,03,16,15,03,12.30
2019,03,16,15,04,12.20
2019,03,16,15,05,12.20
2019,03,16,15,06,12.20
2019,03,16,15,07,12.20
2019,03,16,15,08,12.20
2019,03,16,15,09,12.10
2019,03,16,15,10,12.10
2019,03,16,15,11,12.20
2019,03,16,15,12,12.20
2019,03,16,15,13,12.20
2019,03,16,15,14,12.30
2019,03,16,15,15,12.30
2019,03,16,15,16,12.40
2019,03,16,15,17,12.40
2019,03,16,15,18,12.40
2019,03,16,15,19,12.40
2019,03,16,15,20,12.50
2019,03,16,15,21,12.50
2019,03,16,15,22,12.50
2019,03,16,15,23,12.50
2019,03,16,15,24,12.50
2019,03,16,15,25,12.50
2019,03,16,15,26,12.40
2019,03,16,15,27,12.50
2019,03,16,15,28,12.50
2019,03,16,15,29,12.50
2019,03,16,15,30,12.60
2019,03,16,15,31,12.60
2019,03,16,15,32,12.60
2019,03,16,15,33,12.60
2019,03,16,15,34,12.60
2019,03,16,15,35,12.60
2019,03,16,15,36,12.60
2019,03,16,15,37,12.50
2019,03,16,15,38,12.40
2019,03,16,15,39,12.40
2019,03,16,15,40,12.20
2019,03,16,15,41,12.20
2019,03,16,15,42,12.10
2019,03,16,15,43,12.00
2019,03,16,15,44,11.90
2019,03,16,15,45,11.90
2019,03,16,15,46,11.90
2019,03,16,15,47,11.90
2019,03,16,15,48,11.90
2019,03,16,15,49,11.90
2019,03,16,15,50,11.90
2019,03,16,15,51,11.90
2019,03,16,15,52,11.90
2019,03,16,15,53,11.80
2019,03,16,15,54,11.80
2019,03,16,15,55,11.80
2019,03,16,15,56,11.80
2019,03,16,15,57,11.80
2019,03,16,15,58,11.80
2019,03,16,15,59,11.80
2019,03,16,16,00,11.80
2019,03,16,16,01,11.80
2019,03,16,16,02,11.80
2019,03,16,16,03,11.80
2019,03,16,16,04,11.90
2019,03,16,16,05,11.90
2019,03,16,16,06,11.90
2019,03,16,16,07,11.80
2019,03,16,16,08,11.80
2019,03,16,16,09,11.80
2019,03,16,16,10,11.80
2019,03,16,16,11,11.80
2019,03,16,16,12,11.80
2019,03,16,16,13,11.80
2019,03,16,16,14,11.80
2019,03,16,16,15,11.80
2019,03,16,16,16,11.80
2019,03,16,16,17,11.80
2019,03,16,16,18,11.80
2019,03,16,16,19,11.80
2019,03,16,16,20,11.80
2019,03,16,16,21,11.80
2019,03,16,16,22,11.80
2019,03,16,16,23,11.80
2019,03,16,16,24,11.80
2019,03,16,16,25,11.80
2019,03,16,16,26,11.80
2019,03,16,16,27,11.80
2019,03,16,16,28,11.80
2019,03,16,16,29,11.80
2019,03,16,16,30,11.80
2019,03,16,16,31,11.80
2019,03,16,16,32,11.80
2019,03,16,16,33,11.80
2019,03,16,16,34,11.90
2019,03,16,16,35,11.80
2019,03,16,16,36,11.80
2019,03,16,16,37,11.80
2019,03,16,16,38,11.80
2019,03,16,16,39,11.80
2019,03,16,16,40,11.80
2019,03,16,16,41,11.80
2019,03,16,16,42,11.80
2019,03,16,16,43,11.80
2019,03,16,16,44,11.80
2019,03,16,16,45,11.80
2019,03,16,16,46,11.80
2019,03,16,16,47,11.80
2019,03,16,16,48,11.90
2019,03,16,16,49,11.90
2019,03,16,16,50,11.90
2019,03,16,16,51,11.90
2019,03,16,16,52,11.90
2019,03,16,16,53,11.90
2019,03,16,16,54,11.90
2019,03,16,16,55,11.90
2019,03,16,16,56,11.90
2019,03,16,16,57,11.80
2019,03,16,16,58,11.80
2019,03,16,16,59,11.80
2019,03,16,17,00,11.70
2019,03,16,17,01,11.70
2019,03,16,17,02,11.60
2019,03,16,17,03,11.60
2019,03,16,17,04,11.60
2019,03,16,17,05,11.60
2019,03,16,17,06,11.60
2019,03,16,17,07,11.60
2019,03,16,17,08,11.60
2019,03,16,17,09,11.60
2019,03,16,17,10,11.60
2019,03,16,17,11,11.50
2019,03,16,17,12,11.50
2019,03,16,17,13,11.50
2019,03,16,17,14,11.40
2019,03,16,17,15,11.40
2019,03,16,17,16,11.40
2019,03,16,17,17,11.40
2019,03,16,17,18,11.50
2019,03,16,17,19,11.50
2019,03,16,17,20,11.50
2019,03,16,17,21,11.50
2019,03,16,17,22,11.50
2019,03,16,17,23,11.50
2019,03,16,17,24,11.50
2019,03,16,17,25,11.50
2019,03,16,17,26,11.50
2019,03,16,17,27,11.50
2019,03,16,17,28,11.50
2019,03,16,17,29,11.50
2019,03,16,17,30,11.60
2019,03,16,17,31,11.50
2019,03,16,17,32,11.60
2019,03,16,17,33,11.60
2019,03,16,17,34,11.60
2019,03,16,17,35,11.60
2019,03,16,17,36,11.60
2019,03,16,17,37,11.60
2019,03,16,17,38,11.60
2019,03,16,17,39,11.60
2019,03,16,17,40,11.60
2019,03,16,17,41,11.60
2019,03,16,17,42,11.60
2019,03,16,17,43,11.60
2019,03,16,17,44,11.60
2019,03,16,17,45,11.60
2019,03,16,17,46,11.50
2019,03,16,17,47,11.50
2019,03,16,17,48,11.50
2019,03,16,17,49,11.40
2019,03,16,17,50,11.40
2019,03,16,17,51,11.40
2019,03,16,17,52,11.40
2019,03,16,17,53,11.40
2019,03,16,17,54,11.40
2019,03,16,17,55,11.40
2019,03,16,17,56,11.40
2019,03,16,17,57,11.30
2019,03,16,17,58,11.30
2019,03,16,17,59,11.30
2019,03,16,18,00,11.30
2019,03,16,18,01,11.30
2019,03,16,18,02,11.30
2019,03,16,18,03,11.30
2019,03,16,18,04,11.30
2019,03,16,18,05,11.30
2019,03,16,18,06,11.30
2019,03,16,18,07,11.20
2019,03,16,18,08,11.20
2019,03,16,18,09,11.20
2019,03,16,18,10,11.10
2019,03,16,18,11,11.10
2019,03,16,18,12,11.10
2019,03,16,18,13,11.00
2019,03,16,18,14,11.00
2019,03,16,18,15,11.00
2019,03,16,18,16,10.90
2019,03,16,18,17,10.90
2019,03,16,18,18,10.90
2019,03,16,18,19,10.80
2019,03,16,18,20,10.80
2019,03,16,18,21,10.80
2019,03,16,18,22,10.80
2019,03,16,18,23,10.80
2019,03,16,18,24,10.80
2019,03,16,18,25,10.80
2019,03,16,18,26,10.70
2019,03,16,18,27,10.70
2019,03,16,18,28,10.70
2019,03,16,18,29,10.70
2019,03,16,18,30,10.70
2019,03,16,18,31,10.70
2019,03,16,18,32,10.60
2019,03,16,18,33,10.60
2019,03,16,18,34,10.60
2019,03,16,18,35,10.60
2019,03,16,18,36,10.60
2019,03,16,18,37,10.50
2019,03,16,18,38,10.50
2019,03,16,18,39,10.40
2019,03,16,18,40,10.40
2019,03,16,18,41,10.40
2019,03,16,18,42,10.30
2019,03,16,18,43,10.30
2019,03,16,18,44,10.30
2019,03,16,18,45,10.30
2019,03,16,18,46,10.30
2019,03,16,18,47,10.30
2019,03,16,18,48,10.30
2019,03,16,18,49,10.20
2019,03,16,18,50,10.20
2019,03,16,18,51,10.20
2019,03,16,18,52,10.20
2019,03,16,18,53,10.20
2019,03,16,18,54,10.20
2019,03,16,18,55,10.20
2019,03,16,18,56,10.20
2019,03,16,18,57,10.20
2019,03,16,18,58,10.20
